Voltar ao catálogo

HULIANWANG DIGUI-128

AtivoComunicaçõesLEO
NORAD 67236·PAYLOAD·🇨🇳 China

Lançado Dec 25, 2025 de Wenchang Space Launch Site

Loading…

Próximas Passagens (próximas 24 horas)

TLE

AtualizadoSource: Space-Track

Época: Sep 13, 2026, 21:34 UTC

1 67236U 25311A   26256.89871308 -.00000081  00000-0  93732-4 0  9999
2 67236  50.0077 157.4126 0000279 305.9772  54.1075 13.29326993 35144

Acompanhe HULIANWANG DIGUI-128 em tempo real com AllMySat

Download on the App Store